Overview Statistics Trail Chart Weather Telemetry Raw packets
 

This is the latest recevied weather packets stored in our database for station/object EA8BQU-10. If no packets are shown the sender has not sent any weather packets the latest 10 day(s).

<< 24 25 26 27 28 29 30 >>
Time Temp. Humidity Pressure Rain* Wind** Luminosity Snow
1788115868 25.56° C 100% 1019 hPa - - - -
1788114968 25.56° C 100% 1018.9 hPa - - - -
1788114068 25.56° C 100% 1018.9 hPa - - - -
1788113167 25.56° C 100% 1018.8 hPa - - - -
1788112267 25.56° C 100% 1018.6 hPa - - - -
1788111363 25.56° C 100% 1018.4 hPa - - - -
1788110462 26.11° C 100% 1018.4 hPa - - - -
1788109580 26.67° C 100% 1018.5 hPa - - - -
1788108680 26.67° C 100% 1018.5 hPa - - - -
1788107779 26.67° C 100% 1018.4 hPa - - - -
1788106879 26.67° C 100% 1018.2 hPa - - - -
1788105979 26.67° C 100% 1018.1 hPa - - - -
1788105077 26.67° C 100% 1018.2 hPa - - - -
1788104177 26.67° C 100% 1018.4 hPa - - - -
1788103277 26.67° C 100% 1018.6 hPa - - - -
1788102376 26.67° C 100% 1018.7 hPa - - - -
1788101476 26.11° C 100% 1018.7 hPa - - - -
1788100576 26.67° C 100% 1018.8 hPa - - - -
1788099676 26.11° C 100% 1019 hPa - - - -
1788098774 26.11° C 100% 1019 hPa - - - -
1788097868 26.11° C 100% 1019.1 hPa - - - -
1788096968 25.56° C 100% 1019.2 hPa - - - -
1788096068 25° C 100% 1019.3 hPa - - - -
1788095164 25° C 100% 1019.4 hPa - - - -
1788094263 25° C 100% 1019.9 hPa - - - -

* Rain since midnight (hover to see other rain measurements)
** Current wind speed in m/s (hover to see current wind gust speed)